Time,TemperatureF,DewpointF,PressureIn,WindDirection,WindDirectionDegrees,WindSpeedMPH,WindSpeedGustMPH,Humidity,HourlyPrecipIn,Conditions,Clouds,dailyrainin,SoftwareType,DateUTC
2013-03-22 00:02:00,13.0,13.0,-100.00,West,278,7.0,14.0,100,-99.99,,,-99.99,,2013-03-22 06:02:00,
2013-03-22 00:22:00,13.0,13.0,-100.00,WNW,285,3.0,10.0,100,-99.99,,,-99.99,,2013-03-22 06:22:00,
2013-03-22 00:32:00,12.0,12.0,-100.00,WNW,284,7.0,16.0,100,-99.99,,,-99.99,,2013-03-22 06:32:00,
2013-03-22 00:52:00,12.0,12.0,-100.00,West,278,9.0,17.0,100,-99.99,,,-99.99,,2013-03-22 06:52:00,
2013-03-22 01:02:00,11.0,11.0,-100.00,West,276,8.0,17.0,100,-99.99,,,-99.99,,2013-03-22 07:02:00,
2013-03-22 01:12:00,11.0,11.0,-100.00,West,276,8.0,17.0,100,-99.99,,,-99.99,,2013-03-22 07:12:00,
2013-03-22 01:22:00,11.0,11.0,-100.00,West,263,14.0,18.0,100,-99.99,,,-99.99,,2013-03-22 07:22:00,
2013-03-22 01:32:00,11.0,11.0,-100.00,West,262,12.0,15.0,100,-99.99,,,-99.99,,2013-03-22 07:32:00,
2013-03-22 01:42:00,11.0,11.0,-100.00,West,262,12.0,15.0,100,-99.99,,,-99.99,,2013-03-22 07:42:00,
2013-03-22 01:52:00,12.0,12.0,-100.00,West,260,12.0,16.0,100,-99.99,,,-99.99,,2013-03-22 07:52:00,
2013-03-22 02:02:00,11.0,11.0,-100.00,WNW,297,5.0,11.0,100,-99.99,,,-99.99,,2013-03-22 08:02:00,
2013-03-22 02:22:00,11.0,11.0,-100.00,WNW,296,5.0,10.0,100,-99.99,,,-99.99,,2013-03-22 08:22:00,
2013-03-22 02:32:00,11.0,11.0,-100.00,West,265,9.0,14.0,100,-99.99,,,-99.99,,2013-03-22 08:32:00,
2013-03-22 02:52:00,11.0,11.0,-100.00,West,273,8.0,13.0,100,-99.99,,,-99.99,,2013-03-22 08:52:00,
2013-03-22 03:02:00,10.0,10.0,-100.00,West,272,7.0,12.0,100,-99.99,,,-99.99,,2013-03-22 09:02:00,
2013-03-22 03:12:00,10.0,10.0,-100.00,West,272,7.0,12.0,100,-99.99,,,-99.99,,2013-03-22 09:12:00,
2013-03-22 03:22:00,10.0,10.0,-100.00,West,275,7.0,12.0,100,-99.99,,,-99.99,,2013-03-22 09:22:00,
2013-03-22 03:32:00,10.0,10.0,-100.00,West,278,5.0,11.0,100,-99.99,,,-99.99,,2013-03-22 09:32:00,
2013-03-22 03:42:00,10.0,10.0,-100.00,West,278,5.0,11.0,100,-99.99,,,-99.99,,2013-03-22 09:42:00,
2013-03-22 03:53:00,10.0,10.0,-100.00,WNW,282,6.0,13.0,100,-99.99,,,-99.99,,2013-03-22 09:53:00,
2013-03-22 04:03:00,10.0,10.0,-100.00,WNW,282,6.0,14.0,100,-99.99,,,-99.99,,2013-03-22 10:03:00,
2013-03-22 04:12:00,10.0,10.0,-100.00,WNW,282,6.0,14.0,100,-99.99,,,-99.99,,2013-03-22 10:12:00,
2013-03-22 04:22:00,9.0,9.0,-100.00,WNW,292,5.0,13.0,100,-99.99,,,-99.99,,2013-03-22 10:22:00,
2013-03-22 04:32:00,9.0,9.0,-100.00,West,277,6.0,14.0,100,-99.99,,,-99.99,,2013-03-22 10:32:00,
2013-03-22 04:42:00,9.0,9.0,-100.00,West,277,6.0,14.0,100,-99.99,,,-99.99,,2013-03-22 10:42:00,
2013-03-22 04:52:00,8.0,8.0,-100.00,West,280,5.0,11.0,100,-99.99,,,-99.99,,2013-03-22 10:52:00,
2013-03-22 05:02:00,8.0,8.0,-100.00,West,262,6.0,13.0,100,-99.99,,,-99.99,,2013-03-22 11:02:00,
2013-03-22 05:12:00,8.0,8.0,-100.00,West,262,6.0,13.0,100,-99.99,,,-99.99,,2013-03-22 11:12:00,
2013-03-22 05:22:00,8.0,8.0,-100.00,West,276,5.0,14.0,100,-99.99,,,-99.99,,2013-03-22 11:22:00,
2013-03-22 05:32:00,8.0,8.0,-100.00,West,274,6.0,11.0,100,-99.99,,,-99.99,,2013-03-22 11:32:00,
2013-03-22 05:42:00,8.0,8.0,-100.00,West,274,6.0,11.0,100,-99.99,,,-99.99,,2013-03-22 11:42:00,
2013-03-22 05:52:00,8.0,8.0,-100.00,West,267,11.0,17.0,100,-99.99,,,-99.99,,2013-03-22 11:52:00,
2013-03-22 06:02:00,8.0,8.0,-100.00,West,262,13.0,20.0,100,-99.99,,,-99.99,,2013-03-22 12:02:00,
2013-03-22 06:12:00,8.0,8.0,-100.00,West,262,13.0,20.0,100,-99.99,,,-99.99,,2013-03-22 12:12:00,
2013-03-22 06:22:00,8.0,8.0,-100.00,West,261,13.0,19.0,100,-99.99,,,-99.99,,2013-03-22 12:22:00,
2013-03-22 06:32:00,9.0,9.0,-100.00,West,269,10.0,17.0,100,-99.99,,,-99.99,,2013-03-22 12:32:00,
2013-03-22 06:42:00,9.0,9.0,-100.00,West,269,10.0,17.0,100,-99.99,,,-99.99,,2013-03-22 12:42:00,
2013-03-22 06:52:00,9.0,9.0,-100.00,West,264,10.0,15.0,100,-99.99,,,-99.99,,2013-03-22 12:52:00,
2013-03-22 07:02:00,9.0,9.0,-100.00,WSW,250,8.0,13.0,100,-99.99,,,-99.99,,2013-03-22 13:02:00,
2013-03-22 07:12:00,9.0,9.0,-100.00,WSW,250,8.0,13.0,100,-99.99,,,-99.99,,2013-03-22 13:12:00,
2013-03-22 07:22:00,9.0,9.0,-100.00,WSW,256,9.0,14.0,100,-99.99,,,-99.99,,2013-03-22 13:22:00,
2013-03-22 07:32:00,9.0,9.0,-100.00,WSW,258,6.0,11.0,100,-99.99,,,-99.99,,2013-03-22 13:32:00,
2013-03-22 07:42:00,9.0,9.0,-100.00,WSW,258,6.0,11.0,100,-99.99,,,-99.99,,2013-03-22 13:42:00,
2013-03-22 07:52:00,9.0,9.0,-100.00,West,271,4.0,7.0,100,-99.99,,,-99.99,,2013-03-22 13:52:00,
2013-03-22 08:02:00,8.0,8.0,-100.00,West,281,4.0,6.0,100,-99.99,,,-99.99,,2013-03-22 14:02:00,
2013-03-22 08:12:00,8.0,8.0,-100.00,West,281,4.0,6.0,100,-99.99,,,-99.99,,2013-03-22 14:12:00,
2013-03-22 08:22:00,9.0,9.0,-100.00,West,277,4.0,7.0,100,-99.99,,,-99.99,,2013-03-22 14:22:00,
2013-03-22 08:32:00,9.0,9.0,-100.00,West,279,4.0,10.0,100,-99.99,,,-99.99,,2013-03-22 14:32:00,
2013-03-22 08:42:00,9.0,9.0,-100.00,West,279,4.0,10.0,100,-99.99,,,-99.99,,2013-03-22 14:42:00,
2013-03-22 08:52:00,9.0,9.0,-100.00,West,265,6.0,9.0,100,-99.99,,,-99.99,,2013-03-22 14:52:00,
2013-03-22 09:02:00,9.0,9.0,-100.00,WSW,246,6.0,7.0,100,-99.99,,,-99.99,,2013-03-22 15:02:00,
2013-03-22 09:12:00,9.0,9.0,-100.00,WSW,246,6.0,7.0,100,-99.99,,,-99.99,,2013-03-22 15:12:00,
2013-03-22 09:22:00,9.0,9.0,-100.00,SW,232,5.0,7.0,100,-99.99,,,-99.99,,2013-03-22 15:22:00,
2013-03-22 09:32:00,9.0,9.0,-100.00,South,189,3.0,5.0,100,-99.99,,,-99.99,,2013-03-22 15:32:00,
2013-03-22 09:42:00,9.0,9.0,-100.00,South,189,3.0,5.0,100,-99.99,,,-99.99,,2013-03-22 15:42:00,
2013-03-22 09:52:00,10.0,10.0,-100.00,ESE,121,2.0,11.0,100,-99.99,,,-99.99,,2013-03-22 15:52:00,
2013-03-22 10:02:00,12.0,12.0,-100.00,NNW,343,4.0,7.0,100,-99.99,,,-99.99,,2013-03-22 16:02:00,
2013-03-22 10:13:00,12.0,12.0,-100.00,NNW,343,4.0,7.0,100,-99.99,,,-99.99,,2013-03-22 16:13:00,
2013-03-22 10:22:00,13.0,13.0,-100.00,NNW,328,6.0,10.0,100,-99.99,,,-99.99,,2013-03-22 16:22:00,
2013-03-22 10:32:00,14.0,14.0,-100.00,NNW,328,6.0,11.0,100,-99.99,,,-99.99,,2013-03-22 16:32:00,
2013-03-22 10:42:00,14.0,14.0,-100.00,NNW,328,6.0,11.0,100,-99.99,,,-99.99,,2013-03-22 16:42:00,
2013-03-22 10:52:00,14.0,14.0,-100.00,NW,314,6.0,10.0,100,-99.99,,,-99.99,,2013-03-22 16:52:00,
2013-03-22 11:02:00,16.0,16.0,-100.00,NW,323,6.0,9.0,100,-99.99,,,-99.99,,2013-03-22 17:02:00,
2013-03-22 11:23:00,17.0,17.0,-100.00,NNW,332,6.0,10.0,100,-99.99,,,-99.99,,2013-03-22 17:23:00,
2013-03-22 11:32:00,16.0,16.0,-100.00,NW,318,5.0,8.0,100,-99.99,,,-99.99,,2013-03-22 17:32:00,
2013-03-22 11:42:00,16.0,16.0,-100.00,NW,318,5.0,8.0,100,-99.99,,,-99.99,,2013-03-22 17:42:00,
2013-03-22 11:53:00,17.0,17.0,-100.00,NNW,337,2.0,5.0,100,-99.99,,,-99.99,,2013-03-22 17:53:00,
2013-03-22 12:02:00,15.0,15.0,-100.00,West,277,5.0,11.0,100,-99.99,,,-99.99,,2013-03-22 18:02:00,
2013-03-22 12:12:00,15.0,15.0,-100.00,West,277,5.0,11.0,100,-99.99,,,-99.99,,2013-03-22 18:12:00,
2013-03-22 12:22:00,12.0,12.0,-100.00,West,280,7.0,20.0,100,-99.99,,,-99.99,,2013-03-22 18:22:00,
2013-03-22 12:32:00,12.0,12.0,-100.00,WNW,283,8.0,17.0,100,-99.99,,,-99.99,,2013-03-22 18:32:00,
2013-03-22 12:42:00,12.0,12.0,-100.00,WNW,283,8.0,17.0,100,-99.99,,,-99.99,,2013-03-22 18:42:00,
2013-03-22 12:52:00,14.0,14.0,-100.00,WNW,284,7.0,19.0,100,-99.99,,,-99.99,,2013-03-22 18:52:00,
2013-03-22 13:02:00,11.0,11.0,-100.00,WNW,282,11.0,22.0,100,-99.99,,,-99.99,,2013-03-22 19:02:00,
2013-03-22 13:12:00,11.0,11.0,-100.00,WNW,282,11.0,22.0,100,-99.99,,,-99.99,,2013-03-22 19:12:00,
2013-03-22 13:22:00,10.0,10.0,-100.00,West,273,13.0,26.0,100,-99.99,,,-99.99,,2013-03-22 19:22:00,
2013-03-22 13:32:00,10.0,10.0,-100.00,West,270,12.0,27.0,100,-99.99,,,-99.99,,2013-03-22 19:32:00,
2013-03-22 13:42:00,10.0,10.0,-100.00,West,270,12.0,27.0,100,-99.99,,,-99.99,,2013-03-22 19:42:00,
2013-03-22 13:52:00,12.0,12.0,-100.00,West,275,11.0,19.0,100,-99.99,,,-99.99,,2013-03-22 19:52:00,
2013-03-22 14:02:00,12.0,12.0,-100.00,West,278,11.0,26.0,100,-99.99,,,-99.99,,2013-03-22 20:02:00,
2013-03-22 14:12:00,12.0,12.0,-100.00,West,278,11.0,26.0,100,-99.99,,,-99.99,,2013-03-22 20:12:00,
2013-03-22 14:22:00,11.0,11.0,-100.00,West,276,10.0,24.0,100,-99.99,,,-99.99,,2013-03-22 20:22:00,
2013-03-22 14:32:00,12.0,12.0,-100.00,West,275,10.0,21.0,100,-99.99,,,-99.99,,2013-03-22 20:32:00,
2013-03-22 14:42:00,12.0,12.0,-100.00,West,275,10.0,21.0,100,-99.99,,,-99.99,,2013-03-22 20:42:00,
2013-03-22 14:52:00,11.0,11.0,-100.00,West,276,11.0,20.0,100,-99.99,,,-99.99,,2013-03-22 20:52:00,
2013-03-22 15:02:00,10.0,10.0,-100.00,West,275,12.0,26.0,100,-99.99,,,-99.99,,2013-03-22 21:02:00,
2013-03-22 15:12:00,10.0,10.0,-100.00,West,275,12.0,26.0,100,-99.99,,,-99.99,,2013-03-22 21:12:00,
2013-03-22 15:22:00,8.0,8.0,-100.00,West,271,18.0,34.0,100,-99.99,,,-99.99,,2013-03-22 21:22:00,
2013-03-22 15:32:00,8.0,8.0,-100.00,West,274,17.0,30.0,100,-99.99,,,-99.99,,2013-03-22 21:32:00,
2013-03-22 15:42:00,8.0,8.0,-100.00,West,274,17.0,30.0,100,-99.99,,,-99.99,,2013-03-22 21:42:00,
2013-03-22 15:53:00,8.0,8.0,-100.00,West,270,15.0,28.0,100,-99.99,,,-99.99,,2013-03-22 21:53:00,
2013-03-22 16:02:00,8.0,8.0,-100.00,West,271,18.0,33.0,100,-99.99,,,-99.99,,2013-03-22 22:02:00,
2013-03-22 16:12:00,8.0,8.0,-100.00,West,271,18.0,33.0,100,-99.99,,,-99.99,,2013-03-22 22:12:00,
2013-03-22 16:22:00,9.0,9.0,-100.00,West,268,12.0,23.0,100,-99.99,,,-99.99,,2013-03-22 22:22:00,
2013-03-22 16:32:00,9.0,9.0,-100.00,West,270,9.0,19.0,100,-99.99,,,-99.99,,2013-03-22 22:32:00,
2013-03-22 16:42:00,9.0,9.0,-100.00,West,270,9.0,19.0,100,-99.99,,,-99.99,,2013-03-22 22:42:00,
2013-03-22 16:53:00,9.0,9.0,-100.00,West,278,6.0,12.0,100,-99.99,,,-99.99,,2013-03-22 22:53:00,
2013-03-22 17:02:00,9.0,9.0,-100.00,WNW,298,6.0,17.0,100,-99.99,,,-99.99,,2013-03-22 23:02:00,
2013-03-22 17:12:00,9.0,9.0,-100.00,WNW,298,6.0,17.0,100,-99.99,,,-99.99,,2013-03-22 23:12:00,
2013-03-22 17:22:00,9.0,9.0,-100.00,WNW,289,6.0,16.0,100,-99.99,,,-99.99,,2013-03-22 23:22:00,
2013-03-22 17:32:00,10.0,10.0,-100.00,WNW,286,4.0,15.0,100,-99.99,,,-99.99,,2013-03-22 23:32:00,
2013-03-22 17:42:00,10.0,10.0,-100.00,WNW,286,4.0,15.0,100,-99.99,,,-99.99,,2013-03-22 23:42:00,
2013-03-22 17:52:00,9.0,9.0,-100.00,WNW,291,5.0,15.0,100,-99.99,,,-99.99,,2013-03-22 23:52:00,
2013-03-22 18:02:00,9.0,9.0,-100.00,West,278,3.0,11.0,100,-99.99,,,-99.99,,2013-03-23 00:02:00,
2013-03-22 18:12:00,9.0,9.0,-100.00,West,278,3.0,11.0,100,-99.99,,,-99.99,,2013-03-23 00:12:00,
2013-03-22 18:23:00,8.0,8.0,-100.00,West,269,6.0,14.0,100,-99.99,,,-99.99,,2013-03-23 00:23:00,
2013-03-22 18:32:00,8.0,8.0,-100.00,West,269,6.0,14.0,100,-99.99,,,-99.99,,2013-03-23 00:32:00,
2013-03-22 18:42:00,8.0,8.0,-100.00,West,269,6.0,14.0,100,-99.99,,,-99.99,,2013-03-23 00:42:00,
2013-03-22 18:52:00,7.0,7.0,-100.00,WNW,284,5.0,18.0,100,-99.99,,,-99.99,,2013-03-23 00:52:00,
2013-03-22 19:03:00,7.0,7.0,-100.00,WNW,301,4.0,14.0,100,-99.99,,,-99.99,,2013-03-23 01:03:00,
2013-03-22 19:12:00,7.0,7.0,-100.00,WNW,301,4.0,14.0,100,-99.99,,,-99.99,,2013-03-23 01:12:00,
2013-03-22 19:22:00,6.0,6.0,-100.00,WNW,300,6.0,19.0,100,-99.99,,,-99.99,,2013-03-23 01:22:00,
2013-03-22 19:32:00,6.0,6.0,-100.00,WNW,292,7.0,21.0,100,-99.99,,,-99.99,,2013-03-23 01:32:00,
2013-03-22 19:42:00,6.0,6.0,-100.00,WNW,292,7.0,21.0,100,-99.99,,,-99.99,,2013-03-23 01:42:00,
2013-03-22 19:52:00,6.0,6.0,-100.00,WNW,293,5.0,12.0,100,-99.99,,,-99.99,,2013-03-23 01:52:00,
2013-03-22 20:02:00,6.0,6.0,-100.00,WNW,293,5.0,17.0,100,-99.99,,,-99.99,,2013-03-23 02:02:00,
2013-03-22 20:12:00,6.0,6.0,-100.00,WNW,293,5.0,17.0,100,-99.99,,,-99.99,,2013-03-23 02:12:00,
2013-03-22 20:22:00,5.0,5.0,-100.00,WNW,296,4.0,12.0,100,-99.99,,,-99.99,,2013-03-23 02:22:00,
2013-03-22 20:31:00,5.0,5.0,-100.00,West,281,6.0,23.0,100,-99.99,,,-99.99,,2013-03-23 02:31:00,
2013-03-22 20:42:00,5.0,5.0,-100.00,West,281,6.0,23.0,100,-99.99,,,-99.99,,2013-03-23 02:42:00,
2013-03-22 20:52:00,5.0,5.0,-100.00,WNW,287,6.0,19.0,100,-99.99,,,-99.99,,2013-03-23 02:52:00,
2013-03-22 21:02:00,5.0,5.0,-100.00,West,274,5.0,13.0,100,-99.99,,,-99.99,,2013-03-23 03:02:00,
2013-03-22 21:12:00,5.0,5.0,-100.00,West,274,5.0,13.0,100,-99.99,,,-99.99,,2013-03-23 03:12:00,
2013-03-22 21:22:00,5.0,5.0,-100.00,WNW,286,8.0,20.0,100,-99.99,,,-99.99,,2013-03-23 03:22:00,
2013-03-22 21:33:00,4.0,4.0,-100.00,WNW,284,11.0,24.0,100,-99.99,,,-99.99,,2013-03-23 03:33:00,
2013-03-22 21:43:00,4.0,4.0,-100.00,WNW,284,11.0,24.0,100,-99.99,,,-99.99,,2013-03-23 03:43:00,
2013-03-22 21:53:00,4.0,4.0,-100.00,WNW,283,9.0,21.0,100,-99.99,,,-99.99,,2013-03-23 03:53:00,
2013-03-22 22:02:00,4.0,4.0,-100.00,WNW,283,7.0,19.0,100,-99.99,,,-99.99,,2013-03-23 04:02:00,
2013-03-22 22:12:00,4.0,4.0,-100.00,WNW,283,7.0,19.0,100,-99.99,,,-99.99,,2013-03-23 04:12:00,
2013-03-22 22:23:00,5.0,5.0,-100.00,WNW,284,8.0,19.0,100,-99.99,,,-99.99,,2013-03-23 04:23:00,
2013-03-22 22:32:00,5.0,5.0,-100.00,WNW,283,8.0,26.0,100,-99.99,,,-99.99,,2013-03-23 04:32:00,
2013-03-22 22:43:00,5.0,5.0,-100.00,WNW,283,8.0,26.0,100,-99.99,,,-99.99,,2013-03-23 04:43:00,
2013-03-22 22:53:00,5.0,5.0,-100.00,WSW,253,4.0,13.0,100,-99.99,,,-99.99,,2013-03-23 04:53:00,
2013-03-22 23:02:00,5.0,5.0,-100.00,NW,325,2.0,6.0,100,-99.99,,,-99.99,,2013-03-23 05:02:00,
2013-03-22 23:12:00,5.0,5.0,-100.00,NW,325,2.0,6.0,100,-99.99,,,-99.99,,2013-03-23 05:12:00,
2013-03-22 23:22:00,5.0,5.0,-100.00,WNW,286,6.0,17.0,100,-99.99,,,-99.99,,2013-03-23 05:22:00,
2013-03-22 23:32:00,5.0,5.0,-100.00,WNW,283,6.0,18.0,100,-99.99,,,-99.99,,2013-03-23 05:32:00,
2013-03-22 23:42:00,5.0,5.0,-100.00,WNW,283,6.0,18.0,100,-99.99,,,-99.99,,2013-03-23 05:42:00,
2013-03-22 23:52:00,5.0,5.0,-100.00,West,277,8.0,21.0,100,-99.99,,,-99.99,,2013-03-23 05:52:00,